| time (UTC) | temp F | wind direction | speed MPH | gust MPH | rain 1hr in | rain 24hr in | rain mn in | humidity % | barometer mb |
| 20260502221005 | 50 | 289 | 6.0 | 13.0 | 0.00 | 0.00 | 0.00 | 41 | 1016.6 |
| 20260502220505 | 51 | 293 | 6.0 | 13.0 | 0.00 | 0.00 | 0.00 | 42 | 1016.6 |
| 20260502220004 | 51 | 276 | 5.0 | 14.0 | 0.00 | 0.00 | 0.00 | 42 | 1016.6 |
| 20260502215504 | 51 | 322 | 5.0 | 10.0 | 0.00 | 0.00 | 0.00 | 40 | 1016.6 |
| 20260502215006 | 51 | 292 | 6.0 | 12.0 | 0.00 | 0.00 | 0.00 | 41 | 1016.6 |
| 20260502214504 | 51 | 295 | 9.0 | 15.0 | 0.00 | 0.00 | 0.00 | 41 | 1016.7 |
| 20260502214005 | 51 | 277 | 7.0 | 12.0 | 0.00 | 0.00 | 0.00 | 41 | 1016.7 |
| 20260502213504 | 51 | 260 | 7.0 | 13.0 | 0.00 | 0.00 | 0.00 | 40 | 1016.7 |
| 20260502213005 | 51 | 292 | 7.0 | 13.0 | 0.00 | 0.00 | 0.00 | 42 | 1016.5 |
| 20260502212505 | 51 | 266 | 6.0 | 13.0 | 0.00 | 0.00 | 0.00 | 42 | 1016.6 |
| 20260502212005 | 51 | 300 | 6.0 | 10.0 | 0.00 | 0.00 | 0.00 | 41 | 1016.6 |
| 20260502211504 | 51 | 283 | 7.0 | 15.0 | 0.00 | 0.00 | 0.00 | 42 | 1016.6 |
| 20260502210504 | 50 | 283 | 7.0 | 12.0 | 0.00 | 0.00 | 0.00 | 44 | 1016.7 |
| 20260502210004 | 50 | 339 | 3.0 | 9.0 | 0.00 | 0.00 | 0.00 | 45 | 1016.7 |
| 20260502205505 | 49 | 288 | 7.0 | 10.0 | 0.00 | 0.00 | 0.00 | 46 | 1016.8 |
| 20260502205005 | 49 | 322 | 3.0 | 9.0 | 0.00 | 0.00 | 0.00 | 46 | 1016.8 |
| 20260502204506 | 49 | 288 | 5.0 | 12.0 | 0.00 | 0.00 | 0.00 | 48 | 1016.9 |
| 20260502204005 | 48 | 256 | 7.0 | 12.0 | 0.00 | 0.00 | 0.00 | 47 | 1016.9 |
| 20260502203504 | 48 | 295 | 6.0 | 12.0 | 0.00 | 0.00 | 0.00 | 45 | 1017.0 |
| 20260502203005 | 49 | 259 | 6.0 | 12.0 | 0.00 | 0.00 | 0.00 | 46 | 1016.9 |
| 20260502202504 | 49 | 289 | 9.0 | 14.0 | 0.00 | 0.00 | 0.00 | 46 | 1017.0 |
| 20260502202005 | 49 | 282 | 7.0 | 20.0 | 0.00 | 0.00 | 0.00 | 47 | 1017.1 |
| 20260502201504 | 48 | 274 | 6.0 | 12.0 | 0.00 | 0.00 | 0.00 | 47 | 1017.2 |
| 20260502201005 | 48 | 316 | 5.0 | 12.0 | 0.00 | 0.00 | 0.00 | 47 | 1017.2 |
| 20260502200504 | 48 | 341 | 3.0 | 9.0 | 0.00 | 0.00 | 0.00 | 46 | 1017.3 |
| 20260502195504 | 48 | 5 | 3.0 | 8.0 | 0.00 | 0.00 | 0.00 | 47 | 1017.4 |
| 20260502195005 | 48 | 350 | 5.0 | 7.0 | 0.00 | 0.00 | 0.00 | 48 | 1017.4 |
| 20260502194504 | 47 | 287 | 5.0 | 10.0 | 0.00 | 0.00 | 0.00 | 47 | 1017.4 |
| 20260502194005 | 48 | 316 | 2.0 | 7.0 | 0.00 | 0.00 | 0.00 | 49 | 1017.5 |
| 20260502193504 | 47 | 302 | 7.0 | 12.0 | 0.00 | 0.00 | 0.00 | 48 | 1017.6 |
| 20260502193005 | 47 | 281 | 5.0 | 10.0 | 0.00 | 0.00 | 0.00 | 48 | 1017.6 |
| 20260502192504 | 47 | 325 | 6.0 | 10.0 | 0.00 | 0.00 | 0.00 | 49 | 1017.7 |
| 20260502192005 | 47 | 309 | 6.0 | 15.0 | 0.00 | 0.00 | 0.00 | 47 | 1017.8 |
| 20260502191504 | 47 | 287 | 3.0 | 13.0 | 0.00 | 0.00 | 0.00 | 47 | 1017.8 |
| 20260502190504 | 47 | 315 | 7.0 | 12.0 | 0.00 | 0.00 | 0.00 | 48 | 1017.9 |
| 20260502190004 | 47 | 328 | 3.0 | 9.0 | 0.00 | 0.00 | 0.00 | 48 | 1017.9 |
| 20260502185504 | 47 | 275 | 5.0 | 7.0 | 0.00 | 0.00 | 0.00 | 48 | 1017.9 |
| 20260502185004 | 47 | 268 | 5.0 | 13.0 | 0.00 | 0.00 | 0.00 | 48 | 1017.9 |
| 20260502184504 | 47 | 297 | 7.0 | 12.0 | 0.00 | 0.00 | 0.00 | 45 | 1017.9 |
| 20260502183503 | 46 | 270 | 6.0 | 9.0 | 0.00 | 0.00 | 0.00 | 48 | 1018.0 |
| 20260502183004 | 46 | 329 | 4.0 | 10.0 | 0.00 | 0.00 | 0.00 | 50 | 1018.1 |
| 20260502182504 | 46 | 295 | 4.0 | 10.0 | 0.00 | 0.00 | 0.00 | 50 | 1018.1 |
| 20260502182004 | 46 | 297 | 7.0 | 13.0 | 0.00 | 0.00 | 0.00 | 47 | 1018.2 |
| 20260502181504 | 46 | 278 | 8.0 | 15.0 | 0.00 | 0.00 | 0.00 | 48 | 1018.3 |
| 20260502180503 | 46 | 319 | 2.0 | 10.0 | 0.00 | 0.00 | 0.00 | 48 | 1018.3 |
| 20260502164004 | 45 | 291 | 5.0 | 10.0 | 0.00 | 0.00 | 0.00 | 52 | 1018.8 |
| 20260502163504 | 44 | 296 | 5.0 | 12.0 | 0.00 | 0.00 | 0.00 | 53 | 1018.9 |
| 20260502163007 | 45 | 303 | 6.0 | 12.0 | 0.00 | 0.00 | 0.00 | 52 | 1018.9 |
| 20260502162506 | 45 | 328 | 5.0 | 12.0 | 0.00 | 0.00 | 0.00 | 52 | 1018.9 |
| 20260502162007 | 45 | 312 | 2.0 | 10.0 | 0.00 | 0.00 | 0.00 | 54 | 1018.9 |
| 20260502161506 | 44 | 301 | 7.0 | 12.0 | 0.00 | 0.00 | 0.00 | 53 | 1019.0 |
| 20260502161007 | 44 | 284 | 6.0 | 12.0 | 0.00 | 0.00 | 0.00 | 54 | 1019.0 |
| 20260502160506 | 44 | 266 | 3.0 | 12.0 | 0.00 | 0.00 | 0.00 | 54 | 1019.0 |
| 20260502152007 | 43 | 255 | 4.0 | 8.0 | 0.00 | 0.00 | 0.00 | 59 | 1019.0 |
| 20260502151007 | 44 | 277 | 7.0 | 12.0 | 0.00 | 0.00 | 0.00 | 55 | 1019.0 |
| 20260502150506 | 44 | 7 | 6.0 | 10.0 | 0.00 | 0.00 | 0.00 | 54 | 1019.0 |
| 20260502123506 | 37 | 295 | 1.0 | 7.0 | 0.00 | 0.00 | 0.00 | 77 | 1018.6 |
| 20260502123006 | 36 | 300 | 3.0 | 8.0 | 0.00 | 0.00 | 0.00 | 78 | 1018.7 |
| 20260502122506 | 36 | 311 | 6.0 | 10.0 | 0.00 | 0.00 | 0.00 | 78 | 1018.7 |
| 20260502122006 | 36 | 302 | 3.0 | 8.0 | 0.00 | 0.00 | 0.00 | 79 | 1018.7 |
| 20260502120506 | 34 | 301 | 3.0 | 6.0 | 0.00 | 0.00 | 0.00 | 82 | 1018.7 |
| 20260502115507 | 34 | 301 | 2.0 | 6.0 | 0.00 | 0.00 | 0.00 | 83 | 1018.6 |
| 20260502115007 | 33 | 300 | 3.0 | 9.0 | 0.00 | 0.00 | 0.00 | 83 | 1018.5 |
| 20260502113506 | 32 | 309 | 2.0 | 5.0 | 0.00 | 0.00 | 0.00 | 85 | 1018.5 |
| 20260502112506 | 32 | 306 | 1.0 | 5.0 | 0.00 | 0.00 | 0.00 | 85 | 1018.4 |
| 20260502111506 | 31 | 298 | 2.0 | 5.0 | 0.00 | 0.00 | 0.00 | 85 | 1018.4 |
| 20260502110505 | 31 | 315 | 1.0 | 3.0 | 0.00 | 0.00 | 0.00 | 85 | 1018.3 |
| 20260502110006 | 31 | 289 | 0.0 | 3.0 | 0.00 | 0.00 | 0.00 | 85 | 1018.2 |
| 20260502105506 | 31 | 286 | 2.0 | 6.0 | 0.00 | 0.00 | 0.00 | 85 | 1018.2 |
| 20260502104506 | 31 | 294 | 0.0 | 2.0 | 0.00 | 0.00 | 0.00 | 85 | 1018.0 |
| 20260502104007 | 31 | 294 | 0.0 | 0.0 | 0.00 | 0.00 | 0.00 | 85 | 1018.0 |
| 20260502103506 | 31 | 294 | 0.0 | 0.0 | 0.00 | 0.00 | 0.00 | 85 | 1018.0 |
| 20260502103007 | 31 | 294 | 0.0 | 2.0 | 0.00 | 0.00 | 0.00 | 85 | 1017.9 |
| 20260502102505 | 30 | 294 | 1.0 | 3.0 | 0.00 | 0.01 | 0.00 | 85 | 1017.9 |
| 20260502102006 | 30 | 284 | 0.0 | 2.0 | 0.00 | 0.01 | 0.00 | 85 | 1017.9 |
| 20260502101506 | 30 | 284 | 0.0 | 1.0 | 0.00 | 0.01 | 0.00 | 85 | 1017.9 |
| 20260502100506 | 30 | 284 | 0.0 | 0.0 | 0.00 | 0.01 | 0.00 | 85 | 1017.9 |
| 20260502091007 | 31 | 283 | 0.0 | 0.0 | 0.00 | 0.01 | 0.00 | 82 | 1017.8 |
| 20260502071505 | 33 | 280 | 0.0 | 1.0 | 0.00 | 0.12 | 0.00 | 77 | 1017.6 |
| 20260502071006 | 33 | 280 | 0.0 | 0.0 | 0.00 | 0.12 | 0.00 | 77 | 1017.6 |
| 20260502070505 | 33 | 280 | 0.0 | 1.0 | 0.00 | 0.14 | 0.00 | 76 | 1017.6 |
| 20260502065505 | 33 | 280 | 1.0 | 3.0 | 0.00 | 0.15 | 0.00 | 76 | 1017.6 |
| 20260502065006 | 33 | 279 | 0.0 | 0.0 | 0.00 | 0.15 | 0.00 | 76 | 1017.6 |
| 20260502064505 | 33 | 279 | 0.0 | 2.0 | 0.00 | 0.15 | 0.00 | 76 | 1017.7 |
| 20260502064006 | 33 | 279 | 0.0 | 2.0 | 0.00 | 0.15 | 0.00 | 76 | 1017.7 |
| 20260502063505 | 33 | 278 | 1.0 | 5.0 | 0.00 | 0.15 | 0.00 | 75 | 1017.7 |
| 20260502062506 | 34 | 277 | 0.0 | 0.0 | 0.00 | 0.15 | 0.00 | 74 | 1017.8 |
| 20260502060506 | 34 | 279 | 0.0 | 0.0 | 0.00 | 0.15 | 0.00 | 73 | 1017.8 |
| 20260502060005 | 34 | 278 | 0.0 | 0.0 | 0.00 | 0.15 | 0.00 | 73 | 1017.8 |
| 20260502055505 | 34 | 278 | 0.0 | 0.0 | 0.00 | 0.15 | 0.00 | 73 | 1017.8 |
| 20260502055006 | 34 | 278 | 0.0 | 1.0 | 0.00 | 0.15 | 0.00 | 73 | 1017.8 |
| 20260502054006 | 35 | 275 | 0.0 | 3.0 | 0.00 | 0.15 | 0.00 | 72 | 1017.8 |
| 20260502053505 | 35 | 277 | 1.0 | 3.0 | 0.00 | 0.15 | 0.00 | 72 | 1017.8 |
| 20260502053006 | 35 | 274 | 1.0 | 3.0 | 0.00 | 0.15 | 0.00 | 72 | 1017.8 |
| 20260502052506 | 35 | 274 | 2.0 | 6.0 | 0.00 | 0.15 | 0.00 | 71 | 1017.8 |
| 20260502052006 | 35 | 267 | 0.0 | 7.0 | 0.00 | 0.15 | 0.00 | 71 | 1017.8 |
| 20260502051506 | 35 | 272 | 1.0 | 5.0 | 0.00 | 0.15 | 0.00 | 71 | 1017.9 |
| 20260502051006 | 35 | 279 | 0.0 | 5.0 | 0.00 | 0.15 | 0.00 | 71 | 1017.9 |
| 20260502050505 | 35 | 277 | 2.0 | 7.0 | 0.00 | 0.15 | 0.00 | 71 | 1017.9 |